Find Starlink 32488

NORAD ID: 62125 Int'l Des: 2024-222 Owner: SPXS Country: US Constellation: starlink operational
LEOCIRCULAR

現在のビュー

3D地球を読み込み中...

About Starlink 32488

Starlink 32488 (NORAD 62125) is a starlink constellation satellite (v2 mini) launched Nov 27, 2024 by SPXS of US. It operates in LEO, CIRCULAR orbit with a mass of 730.00 kg.

次回通過

Passes for default location (London). Set your location on the main map for personalized predictions.

高度履歴

Loading altitude history...

軌道要素

1 62125U 24222M 26263.00964833 .00010191 00000-0 37935-3 0 9992
2 62125 43.0000 119.1130 0002334 268.2743 91.7842 15.27579027102363
Epoch: Sep 20, 2026 • Age: 33 hours

現在のステータス

高度 483.0 km
遠地点 / 近地点 N/A
速度 7.63 km/s
衛星直下点 -4.26°S, 30.84°W
打ち上げ日 Nov 27, 2024
運用期間 1.8 years
タイプ internet

技術仕様

分類 Payload
質量 730.00 kg
乾燥質量 700.00 kg
長さ 0.30 m
スパン 29.00 m
形状 ? Box + pan
製造者 SPXS
バスタイプ Starlink V2M
フェーズステータス In Orbit
所有者/国 SPXS/US

Most Searched